CAPE
0 0 0 0 0 0 0 0 0 0 0 0 0 0 0 0 1 18 0 0 0 1 0 0 0 0 2 6 9 7 9 12 15 3 7 4 5 11 9 9 10 39 17
0 0 0 0 0 0 0 0 0 0 0 0 0 0 6 28 14 3 0 0 0 0 0 0 0 0 5 12 18 19 22 20 22 18 8 11 25 21 33 36 34 31 39
0 0 0 0 0 0 0 0 0 0 0 0 0 21 21 9 0 0 0 0 0 0 0 0 2 6 8 7 12 18 19 13 15 23 15 17 18 21 26 40 39 38 28
0 0 0 0 0 0 0 0 0 0 3 21 28 3 0 0 0 0 0 0 0 0 0 1 1 3 5 7 13 11 11 26 15 19 18 16 19 23 42 55 44 46 45
0 0 0 0 0 0 0 0 0 0 10 6 0 0 0 0 0 0 0 0 0 0 0 0 0 0 3 6 12 13 11 12 22 37 35 21 18 18 19 31 42 48 59
0 0 0 0 0 0 0 0 0 1 2 8 0 0 0 0 0 0 0 0 0 0 0 0 0 0 1 4 4 4 8 24 50 37 34 69 28 63 30 36 42 51 44
0 0 0 0 0 0 0 0 0 3 0 0 0 0 0 0 0 0 0 0 0 0 0 0 0 1 6 10 7 11 20 13 15 37 38 47 33 31 30 52 60 41 34
0 0 0 0 0 0 0 0 0 0 2 0 0 0 0 0 0 0 0 0 0 0 0 1 4 7 8 13 38 24 20 14 15 37 61 53 41 34 36 35 65 59 29
0 0 0 0 0 0 0 0 0 0 4 0 0 0 0 0 0 0 0 0 1 1 2 4 6 6 7 25 24 25 15 11 8 8 7 14 14 20 35 37 46 65 59
0 0 0 0 0 0 0 0 0 0 0 0 0 0 0 0 0 0 0 7 7 5 5 1 0 8 14 11 15 22 20 21 18 18 18 15 15 19 3 25 26 29 38
0 0 0 0 0 0 0 0 0 0 0 0 0 0 0 0 0 0 0 8 11 9 5 1 1 5 6 4 5 19 20 12 13 16 17 20 18 16 21 25 14 23 28
0 0 0 0 0 0 0 0 0 0 0 0 0 0 0 0 0 0 0 2 3 9 9 3 5 2 0 0 3 5 1 4 15 15 15 14 12 10 13 15 29 25 15
0 0 0 0 0 0 0 0 0 0 0 0 0 0 0 0 0 0 0 0 0 3 6 0 0 0 0 0 0 1 0 4 10 10 10 8 8 12 13 26 23 25 13
0 0 0 0 0 0 0 0 0 0 0 0 1 2 3 0 1 0 2 10 1 0 0 0 0 0 0 0 1 0 1 1 5 10 9 9 8 8 10 14 18 19 25
0 0 1 1 2 3 2 0 0 0 0 9 8 5 12 11 2 0 3 9 8 1 0 0 0 0 0 0 0 0 0 0 2 5 7 7 6 7 9 10 9 16 19
0 0 2 9 5 5 5 1 0 0 0 0 0 1 6 0 0 0 1 0 0 0 0 0 0 1 0 0 0 0 0 0 0 3 5 6 6 9 9 12 9 10 11
0 0 4 1 6 5 5 5 8 4 0 0 0 2 5 0 0 0 2 0 0 0 0 1 3 2 0 0 0 0 0 0 0 1 5 4 6 6 14 12 13 10 7
0 0 4 12 12 7 10 10 10 11 9 5 0 0 0 2 8 6 2 0 2 1 0 1 2 3 1 0 0 0 0 0 0 0 1 4 4 6 10 9 13 9 7
0 3 0 10 10 5 6 6 5 6 6 2 2 0 0 0 1 11 2 10 9 5 2 1 2 1 1 1 2 1 2 1 0 0 0 1 4 3 5 6 8 2 0
7 3 4 10 6 5 5 4 4 6 5 9 16 10 6 0 9 15 7 6 5 3 5 2 1 1 3 2 3 2 2 2 0 0 0 2 4 3 3 5 6 9 6
6 8 0 9 9 6 9 9 5 3 10 16 18 28 0 0 14 19 9 7 2 2 4 4 4 3 2 3 1 2 1 2 0 0 0 1 2 2 1 3 5 4 3
0 0 2 9 23 20 7 8 11 5 3 7 7 8 0 0 2 5 5 5 5 2 2 5 3 3 2 2 3 5 1 1 1 0 0 0 2 2 1 1 1 2 1
4 5 7 4 10 12 6 6 9 4 2 2 1 2 4 4 4 2 2 2 3 2 2 2 3 1 2 1 1 1 1 1 1 0 0 0 1 3 2 2 0 0 0
4 4 17 7 17 15 6 7 6 0 0 1 2 3 3 4 4 2 2 1 1 2 2 1 0 0 0 1 2 0 0 0 0 0 0 0 1 1 1 0 1 0 0
1 3 4 43 47 35 7 4 4 5 4 2 2 3 3 4 4 3 2 1 0 1 1 0 0 0 0 0 0 0 0 0 0 0 0 0 0 0 0 0 1 0 0
16 21 25 16 33 38 16 10 9 8 7 6 8 12 12 11 8 6 5 2 0 0 1 1 0 0 0 0 0 0 0 0 0 0 0 0 0 0 0 0 0 1 0
CIN
0 0 0 0 0 0 0 0 0 0 0 0 0 0 0 0 -4 -3 0 0 -12 -11 0 0 0 0 0 0 0 0 0 0 0 0 0 0 0 0 0 0 0 0 0
0 0 0 0 0 0 0 0 0 0 0 0 0 0 -9 0 -7 -2 0 0 0 0 0 0 0 0 0 0 0 0 0 0 0 0 0 0 0 0 0 0 0 0 0
0 0 0 0 0 0 0 0 0 0 0 0 0 0 -2 -15 0 0 0 0 0 0 0 0 0 0 0 0 0 0 0 0 0 0 0 0 0 0 0 0 0 0 0
0 0 0 0 0 0 0 0 0 0 0 0 -1 -2 -1 0 0 0 0 0 0 0 0 0 0 0 0 0 0 0 0 0 0 0 0 0 0 0 0 0 0 0 0
0 0 0 0 0 0 0 0 0 0 0 -3 0 0 0 0 0 0 0 0 0 0 0 0 0 0 0 0 0 0 0 0 0 0 0 0 0 0 0 0 0 0 0
0 0 0 0 0 0 0 0 0 0 0 0 0 0 0 0 0 0 0 0 0 0 0 0 0 0 0 0 0 0 0 0 0 0 0 0 0 0 0 0 0 0 0
0 0 0 0 0 0 0 0 0 -1 0 0 0 0 0 0 0 0 0 0 0 0 0 0 0 0 0 0 0 0 0 0 -1 0 0 0 0 0 0 0 0 0 0
0 0 0 0 0 0 0 0 0 -1 -4 -4 0 0 0 0 0 0 0 0 0 0 0 0 0 0 0 0 0 0 0 0 0 0 0 0 0 0 0 0 0 0 0
0 0 0 0 0 0 0 0 0 0 -6 0 0 0 0 0 0 0 0 0 0 0 0 0 0 0 0 0 0 0 0 0 -1 0 0 0 0 0 0 0 0 0 0
0 0 0 0 0 0 0 0 0 0 0 0 0 0 0 0 0 0 0 0 0 0 0 0 0 0 0 0 0 0 0 0 0 0 0 0 0 0 0 0 0 0 0
0 0 0 0 0 0 0 0 0 0 0 0 0 0 0 0 0 0 0 0 0 0 0 0 0 0 0 0 0 0 0 0 0 0 0 0 0 0 0 0 0 0 0
0 0 0 0 0 0 0 0 0 0 0 0 0 0 0 0 0 0 0 0 0 0 0 0 0 0 0 0 0 0 0 0 0 0 0 0 0 0 0 0 0 0 0
0 0 0 0 0 0 0 0 0 0 0 0 0 0 0 0 0 0 0 0 0 0 0 0 0 0 0 0 0 0 0 0 0 0 0 0 0 0 0 0 0 0 0
0 0 0 0 0 0 0 0 0 0 0 0 0 0 0 0 0 0 0 0 0 0 0 0 0 0 0 0 0 0 0 0 0 0 0 0 0 0 0 0 0 0 0
0 0 0 0 -1 -2 0 0 0 0 0 0 0 0 0 0 0 0 0 0 0 0 0 0 0 0 0 0 0 0 0 0 0 0 0 0 0 0 0 0 0 0 0
0 0 -1 0 -4 -2 0 0 0 0 0 0 0 0 0 0 0 0 0 0 0 0 0 0 0 0 0 0 0 0 0 0 0 0 0 0 0 0 0 0 0 0 0
0 0 -1 0 0 0 0 0 0 0 0 0 0 -7 -2 0 0 0 0 0 0 0 0 0 0 0 0 0 0 0 0 0 0 0 0 0 0 0 0 0 0 0 0
0 0 0 0 0 0 0 -1 -1 0 -1 0 0 0 0 -4 0 0 0 0 0 0 0 0 0 0 0 0 0 0 0 0 0 0 0 0 0 0 0 0 0 0 0
0 0 0 0 0 0 0 0 0 0 0 0 0 0 0 0 -2 0 0 0 0 0 0 0 0 0 0 0 0 0 0 0 0 0 0 0 0 0 0 0 0 0 0
0 -1 -6 -1 0 0 0 0 0 0 0 0 0 0 -1 0 0 0 0 0 0 0 0 0 0 0 0 0 0 0 0 0 0 0 0 0 0 0 0 0 0 0 0
-1 -4 -5 0 -1 0 0 0 0 0 0 0 0 0 0 0 0 0 0 0 0 0 0 0 0 0 0 0 0 0 0 0 0 0 0 0 0 0 0 0 0 0 0
0 0 -11 -3 0 0 0 0 0 0 0 0 0 0 0 0 0 0 0 0 0 0 0 0 0 0 0 0 0 0 0 0 0 0 0 0 0 0 0 0 0 0 0
0 0 -1 -2 -3 -2 0 0 0 0 0 0 0 0 0 0 0 0 0 0 0 0 0 0 0 0 0 0 0 0 0 0 0 0 0 0 0 0 0 0 0 0 0
0 0 0 0 0 -1 0 0 0 0 0 0 0 0 0 0 0 0 0 0 0 0 0 0 0 0 0 0 0 0 0 0 0 0 0 0 0 0 0 0 0 0 0
0 0 0 0 0 0 0 0 0 0 0 0 0 0 0 0 0 0 0 0 0 0 0 0 0 0 0 0 0 0 0 0 0 0 0 0 0 0 0 0 0 0 0
0 0 0 -1 0 0 0 0 0 0 0 0 0 0 0 0 0 0 0 0 0 0 0 0 0 0 0 0 0 0 0 0 0 0 0 0 0 0 0 0 0 0 0
Wind_Speed
6 4 4 2 2 3 3 5 6 8 10 11 10 9 6 5 5 8 8 7 7 8 6 7 8 9 8 9 9 9 9 10 14 14 13 14 17 16 15 15 15 13 10
4 4 2 1 2 4 5 7 8 9 10 10 9 6 6 8 8 7 6 6 6 6 7 8 11 9 12 12 10 12 11 12 12 20 14 13 14 16 16 16 12 11 12
3 0 0 1 3 4 5 7 9 10 10 9 7 8 7 6 5 2 3 3 3 5 8 10 12 13 14 12 13 12 11 10 11 12 15 12 13 12 13 13 13 13 11
3 3 3 2 3 4 6 8 9 10 10 8 7 7 4 1 1 2 1 3 5 7 9 10 12 12 14 15 13 13 11 10 11 12 13 12 11 11 9 9 10 10 10
4 4 4 4 4 5 7 8 9 9 7 6 2 4 4 1 3 2 3 6 7 9 10 10 11 14 18 15 10 12 13 11 11 11 12 12 11 10 10 10 9 9 10
4 5 4 3 5 6 8 9 9 8 8 6 3 1 2 3 7 7 7 6 8 9 11 11 11 13 12 16 16 17 16 13 14 12 12 12 15 11 10 9 9 7 9
4 4 3 4 6 7 8 8 9 7 5 2 1 3 3 4 6 7 7 6 8 9 10 10 10 9 12 11 14 18 16 17 14 14 14 14 14 11 11 11 11 9 8
3 3 4 4 6 7 7 9 8 6 5 4 3 4 3 3 5 6 7 6 8 9 10 10 11 12 11 14 15 14 13 13 13 9 13 14 13 12 12 11 10 12 10
4 4 5 5 6 6 8 9 8 6 5 4 4 5 3 0 3 5 7 7 8 10 9 10 11 12 14 19 14 13 14 13 11 16 17 18 17 18 16 9 9 9 9
4 5 6 6 6 6 7 8 6 5 5 4 5 4 2 1 1 5 7 5 8 8 10 10 11 12 17 18 13 12 12 12 14 14 12 11 10 10 12 11 9 10 10
4 6 7 7 6 5 5 6 5 4 3 4 3 3 3 3 2 5 7 7 7 8 8 8 8 15 18 17 15 9 12 13 13 11 10 8 8 8 7 6 8 9 10
6 7 8 7 5 4 5 5 5 3 4 4 3 4 4 4 4 4 7 9 8 8 8 8 9 16 16 15 11 15 15 11 8 8 8 8 8 8 8 8 9 9 10
8 8 7 6 6 5 6 6 5 5 4 4 4 4 4 3 4 5 7 9 7 7 6 10 13 14 13 8 12 12 9 7 8 8 8 8 8 9 11 9 7 8 10
8 7 6 6 7 7 5 4 4 5 5 4 5 5 5 4 4 4 4 4 5 6 6 6 6 8 6 6 7 7 6 7 7 7 8 8 8 8 7 8 6 6 4
7 7 7 6 8 8 6 5 5 5 5 5 6 5 5 6 5 5 6 4 5 4 5 4 5 5 6 6 6 6 6 7 7 7 8 9 8 8 8 8 8 7 6
6 6 6 6 7 6 6 6 9 9 8 10 11 7 5 10 7 8 9 6 6 3 4 4 5 5 6 6 7 7 6 8 7 7 7 8 8 8 8 8 7 7 7
6 8 7 6 6 6 5 6 7 6 7 9 10 11 11 11 11 11 10 7 6 3 4 4 4 4 5 5 6 6 7 6 7 6 7 7 8 7 8 7 7 7 7
7 8 8 7 7 7 7 7 6 7 7 5 7 8 9 10 14 13 10 6 6 5 4 5 4 4 4 5 5 5 6 6 6 6 6 7 7 7 7 8 7 8 8
7 6 7 7 6 8 7 7 7 7 6 6 5 5 7 10 11 11 10 7 7 6 5 5 5 4 4 4 4 4 5 5 6 5 5 6 6 7 7 7 7 8 8
7 8 9 7 7 7 7 8 7 7 7 7 7 8 5 3 6 8 8 7 7 7 6 6 5 4 4 4 4 4 5 5 5 5 5 5 5 5 6 7 6 7 7
6 7 9 8 7 7 8 9 8 7 8 8 9 7 7 7 8 8 8 8 8 7 7 6 5 5 4 4 4 4 4 4 4 4 5 5 5 5 5 5 6 6 6
6 6 7 7 7 8 9 9 9 8 8 9 8 8 8 7 8 8 8 8 8 8 6 6 6 6 5 5 4 4 4 4 4 4 4 4 5 5 5 5 5 5 5
8 8 8 8 8 10 9 8 9 8 9 9 8 8 8 8 9 9 9 8 7 7 7 7 7 6 6 5 5 5 5 4 3 3 4 4 5 5 5 5 5 5 5
8 9 9 8 8 8 8 8 9 10 10 9 9 9 9 9 10 11 10 8 7 8 7 7 7 9 7 6 5 5 5 4 3 3 4 4 5 5 5 4 4 5 5
8 8 9 8 7 7 8 8 9 10 10 10 10 10 10 10 10 10 10 9 8 8 9 8 7 9 11 11 8 8 6 6 5 2 3 5 5 6 4 4 4 4 5
8 9 8 7 7 7 8 8 8 8 9 10 10 10 11 11 11 10 9 10 9 8 9 8 9 12 11 9 10 10 8 8 6 4 3 4 4 4 3 4 4 4 5
Wind_Direction
102 120 131 98 32 18 354 339 332 321 313 309 303 290 271 243 246 277 255 262 272 282 275 283 290 295 293 294 292 287 284 284 287 292 293 297 295 291 290 287 279 270 267
122 125 97 74 35 5 355 345 330 315 313 307 300 278 284 292 295 269 266 296 294 283 293 297 297 300 298 298 295 294 289 287 288 290 297 296 296 304 295 288 283 282 280
132 170 276 30 4 349 329 319 321 323 320 314 298 293 294 311 300 300 309 324 305 303 305 302 305 305 302 304 300 295 295 293 290 289 293 296 293 291 287 283 278 268 268
259 301 296 281 293 314 314 322 329 329 326 322 323 313 297 247 29 76 57 330 319 315 314 313 310 307 306 306 303 297 293 293 288 286 288 292 293 299 295 294 284 274 261
278 282 258 257 291 301 322 331 330 325 320 330 347 9 354 96 76 63 356 342 330 322 319 315 313 315 309 307 305 305 306 296 290 287 285 287 287 288 295 293 288 295 283
282 280 260 266 293 322 330 322 318 319 314 316 356 216 147 84 71 46 4 337 328 321 321 320 318 312 313 314 305 299 295 293 287 287 286 282 297 282 288 286 286 280 293
273 262 254 277 310 322 316 314 315 317 311 326 335 168 121 88 43 27 13 333 323 325 323 320 319 318 312 312 304 299 295 293 286 288 289 282 283 294 299 297 283 265 269
260 257 273 296 305 305 306 311 314 300 279 284 187 159 147 78 36 20 1 335 327 325 323 319 319 315 318 316 317 316 314 312 305 294 299 282 277 286 288 287 292 289 271
270 279 286 290 290 298 306 312 305 289 272 231 187 171 181 144 22 4 339 331 327 326 324 324 318 321 321 323 323 320 321 313 316 311 305 298 289 285 280 284 273 272 252
295 290 293 284 276 290 306 309 306 289 273 196 171 177 161 241 5 346 335 320 325 326 324 324 326 327 321 327 327 326 319 329 325 320 313 309 295 287 279 262 262 262 266
304 295 294 283 264 279 301 303 307 292 199 183 182 199 228 240 282 320 326 320 319 323 323 325 329 326 332 331 331 326 334 332 319 318 313 312 312 306 295 269 251 249 253
298 291 294 286 258 269 285 294 284 244 219 203 217 244 241 243 252 284 305 314 319 316 316 323 318 330 332 331 328 336 339 327 327 324 324 326 323 318 312 299 273 239 241
297 291 300 293 273 281 281 279 268 237 232 231 245 265 270 244 257 262 285 295 303 311 315 318 321 328 333 324 343 343 338 345 334 333 332 329 325 317 310 311 298 254 238
300 296 305 295 289 286 276 269 256 237 228 243 263 267 270 260 257 261 278 295 293 304 323 317 322 327 323 319 336 353 351 348 336 335 331 329 325 335 337 343 339 339 254
309 294 290 289 293 293 264 258 242 234 232 263 268 263 262 261 255 237 277 288 310 335 316 320 335 344 345 348 350 353 354 351 351 345 340 342 341 343 347 354 356 0 23
294 285 282 285 294 289 264 260 225 242 237 238 244 237 254 246 238 244 272 281 289 334 307 328 334 337 340 338 343 346 354 354 349 340 344 345 345 344 347 356 5 4 2
285 284 278 272 282 278 254 254 263 237 240 250 249 254 253 248 235 244 260 264 255 261 294 312 310 323 324 328 335 340 341 349 334 340 341 345 345 343 347 355 360 0 360
277 268 279 276 274 268 260 256 257 263 251 254 230 242 247 257 235 239 247 253 251 231 264 283 294 304 310 316 328 333 336 337 343 339 341 344 348 341 347 354 356 356 349
282 285 293 283 275 275 261 255 259 249 237 251 255 241 241 252 256 234 234 242 260 267 261 261 266 277 288 300 312 312 318 327 330 330 338 338 345 342 347 348 343 345 335
282 272 276 279 274 272 261 250 246 237 242 251 252 246 240 206 228 230 228 234 239 251 255 254 258 259 268 281 290 298 300 317 331 330 338 335 340 334 340 339 343 341 348
272 280 288 284 264 277 273 256 239 239 250 259 260 245 220 226 244 243 240 228 232 240 243 242 244 244 247 253 264 279 290 302 317 321 324 332 336 334 340 334 334 337 340
275 273 281 280 274 269 264 260 241 237 245 251 254 247 209 219 239 244 243 239 235 233 237 236 236 234 232 238 252 262 273 284 303 316 319 319 325 336 336 338 340 342 346
274 272 278 285 280 277 271 260 246 240 245 243 247 248 236 231 232 234 238 238 236 229 223 220 226 228 221 220 226 239 255 272 298 309 306 314 321 333 335 335 341 342 352
277 273 276 285 284 278 276 269 255 242 246 247 247 246 244 243 239 237 235 232 229 227 218 212 218 220 218 214 210 215 227 241 238 269 278 294 307 321 330 328 341 344 344
289 285 285 279 286 278 278 269 262 252 245 242 245 244 242 239 242 240 235 226 221 221 215 207 212 217 217 215 212 211 210 206 221 251 261 266 288 297 310 312 331 337 352
283 279 276 271 275 273 276 278 274 268 260 256 253 250 248 241 235 229 229 225 216 216 216 208 209 210 210 212 211 204 192 192 202 203 247 268 281 290 297 315 315 322 346